Regional Weather Roundup
Issued by NWS Kansas City/Pleasant Hill, MO

Home | Current Version | Previous Version | Graphics & Text | Print | Product List | Glossary Off
Versions: 1 2 3 4 5 6 7 8 9 10 11 12 13 14 15 16 17 18 19 20 21 22 23 24 25 26 27 28 29 30 31 32 33 34 35 36 37 38 39 40 41 42 43 44 45 46 47 48 49 50

981
ASUS43 KEAX 120810
RWREAX

WEATHER ROUNDUP FOR EASTERN KANSAS AND NORTHWEST MISSOURI
NATIONAL WEATHER SERVICE KANSAS CITY/PLEASANT HILL MO
200 AM CST FRI FEB 12 2016

KSZ040-057-103>105-MOZ028-029-037-043-120900-
...KANSAS CITY METROPOLITAN AREA...

CITY           SKY/WX    TMP DP  RH WIND       PRES   REMARKS
K.C. INTL      CLOUDY    29  21  72 NE7       30.19R WCI  22
K.C. DOWNTOWN  CLOUDY    31  21  66 NE8       30.20R WCI  23
LEES SUMMIT    CLOUDY    30  21  69 NE7       30.18R WCI  23
OLATHE - IXD   CLOUDY    29  24  82 N5        30.19R WCI  24
OLATHE - OJC   CLOUDY    30  21  69 N5        30.18R WCI  25
LAWRENCE       CLOUDY    27  23  85 NW6       30.20R WCI  20

$$

MOZ001>008-011>017-020>025-030>033-038>040-044>046-053-054-120900-
...NORTHERN AND CENTRAL MISSOURI...

CITY           SKY/WX    TMP DP  RH WIND       PRES   REMARKS
ST. JOSEPH     CLOUDY    30  20  66 NE6       30.21F WCI  24
MOSBY          CLOUDY    30  21  69 NE6       30.20F WCI  24
WARRENSBURG    CLOUDY    30  23  74 NE6       30.19R WCI  24
WHITEMAN AFB   CLOUDY    28  24  85 NE7       30.17S WCI  21
CLINTON          N/A     32  27  80 NE3       30.18R
SEDALIA        CLOUDY    29  24  82 NE9       30.19S WCI  20
WARSAW         NOT AVBL
CHILLICOTHE      N/A     27  16  63 NE3       30.23S
KIRKSVILLE     CLOUDY    21  16  81 E5        30.22S WCI  15

$$

MOZ041-047>049-056>058-063>065-088>090-097-120900-
...EASTERN AND SOUTHERN MISSOURI...

CITY           SKY/WX    TMP DP  RH WIND       PRES   REMARKS
ST. LOUIS INTL FLURRIES  26  20  77 E5        30.22F WCI  20
SPIRIT OF STL  FLURRIES  25  21  86 E6        30.21S WCI  18
COLUMBIA       CLOUDY    26  23  88 NE6       30.20R WCI  19
JEFFERSON CITY CLOUDY    27  23  85 NE5       30.21R WCI  22
ROLLA          CLOUDY    27  22  81 E5        30.13S WCI  22
OSAGE BEACH    CLOUDY    30  18  59 NE5       30.16R WCI  25
SPRINGFIELD    MOCLDY    35  22  58 S8        30.12S WCI  29
BRANSON        MOCLDY    30  21  69 CALM      30.14F
JOPLIN         CLEAR     30  23  75 S5        30.16F WCI  25
WEST PLAINS    MOCLDY    32  20  61 S5        30.14F WCI  27

$$

IAZ060-094-KSZ022-034>040-054-083-096-NEZ052-066-093-120900-
...KANSAS...SOUTHEAST NEBRASKA AND IOWA...

CITY           SKY/WX    TMP DP  RH WIND       PRES   REMARKS
TOPEKA         PTCLDY    27  21  78 CALM      30.20R
MANHATTAN      CLEAR     28  24  85 CALM      30.20R
EMPORIA        CLEAR     25  21  85 NW6       30.17R WCI  18
CHANUTE        CLEAR     27  22  81 W3        30.17R
WICHITA        PTCLDY    32  25  75 W3        30.18S
OMAHA          CLOUDY    24  20  84 N7        30.24S WCI  16
LINCOLN        CLOUDY    29  25  85 NW7       30.25R FOG     WCI  22
FALLS CITY     CLOUDY    29  22  75 N6        30.21R WCI  23
LAMONI         CLOUDY    21  18  88 CALM      30.20S
DES MOINES     FLURRIES  19  15  84 W3        30.22S

$$





USA.gov is the U.S. government's official web portal to all federal, state and local government web resources and services.